Hailey, ID

11:25 PM MDT on March 26, 2017 (GMT -0600)
Friedman Memorial

Weather History for KSUN - February, 2014

Change the Weather History Date:

Tuesday, February 18, 2014

  Actual Average Record
Temperature  
Mean Temperature 34 °F -  
Max Temperature 39 °F 37 °F 53 °F (2008)
Min Temperature 28 °F 16 °F 1 °F (2006)
Degree Days  
Heating Degree Days 32    
Moisture  
Dew Point 27 °F    
Average Humidity 78    
Maximum Humidity 100    
Minimum Humidity 56    
Precipitation  
Precipitation 0.00 in - - ()
Sea Level Pressure  
Sea Level Pressure 29.96 in    
Wind  
Wind Speed 8 mph (WSW)    
Max Wind Speed 17 mph    
Max Gust Speed 28 mph    
Visibility 10 miles    
Events Snow    
Averages and records for this station are not official NWS values.
T = Trace of Precipitation, MM = Missing Value Source: NWS Daily Summary

Daily Weather History Graph

Daily Weather History Graph

Search for Another Location

Airport or City:

Trip Planner

Search our weather history database for the weather conditions in past years. The results will help you decide how hot, cold, wet, or windy it might be!

Date:

Astronomy

Feb. 18, 2014 Rise Set
Actual Time 7:30 AM MST 6:11 PM MST
Civil Twilight 7:01 AM MST 6:41 PM MST
Nautical Twilight 6:28 AM MST 7:14 PM MST
Astronomical Twilight 5:55 AM MST 7:47 PM MST
Moon 10:17 PM MST (2/18) 8:57 AM MST (2/18)
Length of Visible Light 11h 39m
Length of Day
10h 40m
Waning Gibbous, 87% of the Moon is Illuminated
Feb 18
Waning Gibbous
Feb 22
Last Quarter
Mar 1
New
Mar 8
First Quarter
Mar 16
Full

Hourly Weather History & Observations

Time (MST) Temp. Windchill Dew Point Humidity Pressure Visibility Wind Dir Wind Speed Gust Speed Precip Events Conditions
12:15 AM 35.6 °F 25.5 °F 28.4 °F 75% 29.86 in 4.0 mi South 17.3 mph 27.6 mph N/A Snow Light Snow
12:35 AM 35.6 °F 31.7 °F 30.2 °F 81% 29.86 in 5.0 mi SSE 4.6 mph 18.4 mph N/A Snow Light Snow
12:55 AM 35.6 °F 28.0 °F 30.2 °F 81% 29.86 in 10.0 mi WNW 10.4 mph - N/A   Overcast
1:15 AM 37.4 °F 28.9 °F 30.2 °F 75% 29.88 in 10.0 mi West 13.8 mph 23.0 mph N/A Snow Light Snow
1:35 AM 33.8 °F 27.0 °F 32.0 °F 93% 29.88 in 1.5 mi NNW 8.1 mph 18.4 mph N/A Snow Light Snow
1:55 AM 33.8 °F 26.4 °F 32.0 °F 93% 29.89 in 10.0 mi NNW 9.2 mph 16.1 mph N/A   Overcast
2:15 AM 33.8 °F 30.8 °F 30.2 °F 87% 29.90 in 10.0 mi South 3.5 mph - N/A   Scattered Clouds
2:35 AM 32.0 °F 28.7 °F 32.0 °F 100% 29.91 in 10.0 mi ESE 3.5 mph - N/A   Scattered Clouds
2:55 AM 32.0 °F - 30.2 °F 93% 29.92 in 10.0 mi Calm Calm - N/A   Scattered Clouds
3:15 AM 35.6 °F 27.5 °F 26.6 °F 70% 29.93 in 10.0 mi NW 11.5 mph 16.1 mph N/A   Scattered Clouds
3:35 AM 33.8 °F 28.6 °F 26.6 °F 75% 29.93 in 10.0 mi NW 5.8 mph - N/A   Clear
3:55 AM 30.2 °F 21.9 °F 26.6 °F 86% 29.94 in 10.0 mi SE 9.2 mph - N/A   Clear
4:15 AM 30.2 °F 21.3 °F 28.4 °F 93% 29.95 in 10.0 mi SE 10.4 mph - N/A   Clear
4:35 AM 28.4 °F 18.5 °F 26.6 °F 93% 29.96 in 10.0 mi SE 11.5 mph 16.1 mph N/A   Clear
4:55 AM 32.0 °F 25.6 °F 26.6 °F 80% 29.97 in 10.0 mi ESE 6.9 mph - N/A   Clear
5:15 AM 30.2 °F 24.3 °F 24.8 °F 80% 29.98 in 10.0 mi ESE 5.8 mph - N/A   Clear
5:35 AM 30.2 °F - 23.0 °F 75% 29.99 in 10.0 mi Calm Calm - N/A   Clear
5:55 AM 32.0 °F 27.5 °F 23.0 °F 69% 30.00 in 10.0 mi NNW 4.6 mph - N/A   Clear
6:47 AM 28.4 °F 19.7 °F 24.8 °F 86% 30.03 in 10.0 mi ESE 9.2 mph - N/A   Scattered Clouds
7:47 AM 28.4 °F 22.2 °F 23.0 °F 80% 30.06 in 10.0 mi NW 5.8 mph - N/A   Scattered Clouds
8:48 AM 30.2 °F 23.4 °F 21.2 °F 69% 30.07 in 10.0 mi North 6.9 mph - N/A   Scattered Clouds
9:47 AM 32.0 °F 26.4 °F 23.0 °F 69% 30.09 in 10.0 mi NNW 5.8 mph - N/A   Mostly Cloudy
10:48 AM 35.6 °F 29.9 °F 24.8 °F 65% 30.09 in 10.0 mi SE 6.9 mph - N/A   Overcast
11:55 AM 37.4 °F 32.1 °F 24.8 °F 60% 30.09 in 10.0 mi SSE 6.9 mph - N/A   Mostly Cloudy
12:55 PM 35.6 °F 29.2 °F 26.6 °F 70% 30.08 in 10.0 mi East 8.1 mph - N/A   Overcast
1:47 PM 39.2 °F - 24.8 °F 56% 30.06 in 10.0 mi Calm Calm - N/A   Mostly Cloudy
2:47 PM 39.2 °F 32.5 °F 26.6 °F 61% 30.05 in 10.0 mi SE 10.4 mph - N/A   Mostly Cloudy
3:47 PM 39.2 °F 34.2 °F 26.6 °F 61% 30.04 in 10.0 mi SSW 6.9 mph 15.0 mph N/A   Scattered Clouds
4:47 PM 39.2 °F 34.2 °F 26.6 °F 61% 30.02 in 10.0 mi SE 6.9 mph - N/A   Mostly Cloudy
5:47 PM 37.4 °F 32.8 °F 26.6 °F 65% 30.00 in 10.0 mi South 5.8 mph - N/A   Overcast
6:47 PM 37.4 °F 31.4 °F 28.4 °F 70% 29.99 in 10.0 mi WSW 8.1 mph - N/A   Overcast
7:47 PM 35.6 °F 29.9 °F 28.4 °F 75% 29.96 in 10.0 mi NW 6.9 mph - N/A   Overcast
8:47 PM 33.8 °F - 28.4 °F 81% 29.94 in 10.0 mi Calm Calm - N/A   Scattered Clouds
9:47 PM 32.0 °F - 28.4 °F 87% 29.91 in 10.0 mi Calm Calm - N/A   Scattered Clouds
10:15 PM 32.0 °F 25.6 °F 28.4 °F 87% 29.90 in 10.0 mi NW 6.9 mph - N/A   Scattered Clouds
10:47 PM 30.2 °F - 26.6 °F 86% 29.88 in 10.0 mi Calm Calm - N/A   Scattered Clouds
10:55 PM 32.0 °F 27.5 °F 28.4 °F 87% 29.87 in 10.0 mi NW 4.6 mph - N/A   Scattered Clouds
11:15 PM 32.0 °F 28.7 °F 28.4 °F 87% 29.85 in 10.0 mi NW 3.5 mph - N/A   Scattered Clouds
11:35 PM 32.0 °F 25.6 °F 28.4 °F 87% 29.83 in 10.0 mi NW 6.9 mph - N/A   Mostly Cloudy
11:55 PM 32.0 °F 26.4 °F 28.4 °F 87% 29.82 in 10.0 mi NW 5.8 mph - N/A   Mostly Cloudy